^^
Saratoga-Weather Station Historical Data
Daily Summary for April 28, 2020 Units:  Metric    English   Both
Daily Weekly Monthly Yearly Custom
  High: Low: Average:
Temperature: 25.7 °C 9.8 °C 18.1 °C
Dew Point: 12.2 °C 7.3 °C 9 °C
Humidity: 87% 32% 59%
Wind Speed: 16.3km/h 0km/h 2.2km/h
Wind Gust: 19.3km/h - -
Wind- - South
Pressure: 1032.5 hPa 1028.1 hPa -
Precipitation: 0.0 mm    
Historical Graphs
 
 
Tabular Data for April 28, 2020
Time Temperature Dew Point Pressure Wind Wind Speed Wind Gust Humidity Rainfall Rate (Hourly) solar
00:03 13.9 °C 8.9 °C 1032.2 hPa Calm     72% 0.0 mm 0 W/m2
00:08 13.8 °C 9 °C 1032.2 hPa Calm     73% 0.0 mm 0 W/m2
00:13 13.7 °C 8.9 °C 1032.2 hPa South 1.4 km/h 1.6 km/h 73% 0.0 mm 0 W/m2
00:18 13.6 °C 9.1 °C 1032.2 hPa Calm     74% 0.0 mm 0 W/m2
00:23 13.5 °C 9 °C 1032.2 hPa Calm     74% 0.0 mm 0 W/m2
00:28 13.3 °C 8.8 °C 1032.2 hPa Calm   1.6 km/h 74% 0.0 mm 0 W/m2
00:33 13.2 °C 8.9 °C 1032.2 hPa Calm   1.6 km/h 75% 0.0 mm 0 W/m2
00:38 13.1 °C 8.8 °C 1032.5 hPa Calm     75% 0.0 mm 0 W/m2
00:43 13 °C 8.9 °C 1032.2 hPa South 1.4 km/h 1.6 km/h 76% 0.0 mm 0 W/m2
00:48 12.9 °C 8.8 °C 1032.2 hPa Calm     76% 0.0 mm 0 W/m2
00:53 12.8 °C 8.9 °C 1032.5 hPa Calm   1.6 km/h 77% 0.0 mm 0 W/m2
00:58 12.7 °C 8.8 °C 1032.2 hPa Calm     77% 0.0 mm 0 W/m2
01:03 12.6 °C 8.7 °C 1032.5 hPa Calm   1.6 km/h 77% 0.0 mm 0 W/m2
01:08 12.6 °C 8.9 °C 1032.5 hPa Calm   3.2 km/h 78% 0.0 mm 0 W/m2
01:13 12.4 °C 8.9 °C 1032.5 hPa South 1.4 km/h 1.6 km/h 79% 0.0 mm 0 W/m2
01:18 12.4 °C 8.9 °C 1032.5 hPa Calm   3.2 km/h 79% 0.0 mm 0 W/m2
01:23 12.3 °C 8.8 °C 1032.5 hPa South 1.4 km/h 1.6 km/h 79% 0.0 mm 0 W/m2
01:28 12.3 °C 8.8 °C 1032.5 hPa South 1.4 km/h 3.2 km/h 79% 0.0 mm 0 W/m2
01:33 12.2 °C 8.9 °C 1032.5 hPa Calm     80% 0.0 mm 0 W/m2
01:38 12.2 °C 8.9 °C 1032.5 hPa Calm     80% 0.0 mm 0 W/m2
01:43 12.1 °C 8.8 °C 1032.5 hPa Calm     80% 0.0 mm 0 W/m2
01:48 12 °C 8.7 °C 1032.5 hPa South 1.4 km/h 3.2 km/h 80% 0.0 mm 0 W/m2
01:53 11.9 °C 8.7 °C 1032.5 hPa Calm     81% 0.0 mm 0 W/m2
01:58 11.8 °C 8.6 °C 1032.5 hPa Calm     81% 0.0 mm 0 W/m2
02:03 11.8 °C 8.6 °C 1032.2 hPa Calm     81% 0.0 mm 0 W/m2
02:08 11.8 °C 8.6 °C 1032.2 hPa Calm   1.6 km/h 81% 0.0 mm 0 W/m2
02:13 11.7 °C 8.5 °C 1032.2 hPa Calm     81% 0.0 mm 0 W/m2
02:18 11.7 °C 8.5 °C 1032.2 hPa Calm   3.2 km/h 81% 0.0 mm 0 W/m2
02:23 11.8 °C 8.6 °C 1032.2 hPa Calm     81% 0.0 mm 0 W/m2
02:28 11.8 °C 8.6 °C 1032.2 hPa Calm   3.2 km/h 81% 0.0 mm 0 W/m2
02:33 11.7 °C 8.5 °C 1032.2 hPa South 1.4 km/h 1.6 km/h 81% 0.0 mm 0 W/m2
02:38 11.7 °C 8.5 °C 1032.2 hPa South 1.4 km/h 1.6 km/h 81% 0.0 mm 0 W/m2
02:43 11.7 °C 8.5 °C 1032.2 hPa Calm   1.6 km/h 81% 0.0 mm 0 W/m2
02:48 11.6 °C 8.5 °C 1032.2 hPa Calm     81% 0.0 mm 0 W/m2
02:53 11.6 °C 8.5 °C 1032.2 hPa Calm     81% 0.0 mm 0 W/m2
02:58 11.6 °C 8.5 °C 1032.2 hPa Calm     81% 0.0 mm 0 W/m2
03:03 11.5 °C 8.4 °C 1032.2 hPa Calm   1.6 km/h 81% 0.0 mm 0 W/m2
03:08 11.4 °C 8.3 °C 1032.2 hPa Calm     81% 0.0 mm 0 W/m2
03:13 11.4 °C 8.3 °C 1032.2 hPa Calm     81% 0.0 mm 0 W/m2
03:18 11.3 °C 8.3 °C 1032.2 hPa Calm     82% 0.0 mm 0 W/m2
03:23 11.2 °C 8.2 °C 1032.2 hPa Calm     82% 0.0 mm 0 W/m2
03:28 11.1 °C 8.1 °C 1031.8 hPa Calm   1.6 km/h 82% 0.0 mm 0 W/m2
03:33 11 °C 8.2 °C 1031.8 hPa Calm   1.6 km/h 83% 0.0 mm 0 W/m2
03:38 10.9 °C 8.1 °C 1031.8 hPa Calm   1.6 km/h 83% 0.0 mm 0 W/m2
03:43 10.9 °C 8.1 °C 1031.8 hPa Calm     83% 0.0 mm 0 W/m2
03:48 10.8 °C 8.2 °C 1031.8 hPa Calm   1.6 km/h 84% 0.0 mm 0 W/m2
03:53 10.8 °C 8.2 °C 1031.8 hPa South 1.4 km/h 1.6 km/h 84% 0.0 mm 0 W/m2
03:58 10.8 °C 8.2 °C 1031.8 hPa Calm     84% 0.0 mm 0 W/m2
04:03 10.7 °C 8.1 °C 1031.8 hPa Calm     84% 0.0 mm 0 W/m2
04:08 10.6 °C 8 °C 1031.8 hPa South 1.4 km/h 1.6 km/h 84% 0.0 mm 0 W/m2
04:13 10.6 °C 8.2 °C 1031.8 hPa Calm     85% 0.0 mm 0 W/m2
04:18 10.4 °C 8 °C 1031.8 hPa South 1.6 km/h 1.6 km/h 85% 0.0 mm 0 W/m2
04:23 10.4 °C 8 °C 1031.8 hPa Calm   1.6 km/h 85% 0.0 mm 0 W/m2
04:28 10.3 °C 7.9 °C 1031.8 hPa Calm   1.6 km/h 85% 0.0 mm 0 W/m2
04:33 10.3 °C 8.1 °C 1031.8 hPa Calm     86% 0.0 mm 0 W/m2
04:38 10.3 °C 8.1 °C 1031.8 hPa Calm   1.6 km/h 86% 0.0 mm 0 W/m2
04:43 10.3 °C 8.1 °C 1031.8 hPa Calm     86% 0.0 mm 0 W/m2
04:48 10.2 °C 8 °C 1031.8 hPa Calm     86% 0.0 mm 0 W/m2
04:53 10.2 °C 8 °C 1031.8 hPa Calm     86% 0.0 mm 0 W/m2
04:58 10.1 °C 7.9 °C 1031.8 hPa Calm     86% 0.0 mm 0 W/m2
05:03 10.1 °C 7.9 °C 1031.8 hPa Calm     86% 0.0 mm 0 W/m2
05:08 10 °C 7.8 °C 1031.8 hPa Calm     86% 0.0 mm 0 W/m2
05:13 10 °C 7.8 °C 1031.8 hPa Calm     86% 0.0 mm 0 W/m2
05:18 9.9 °C 7.7 °C 1031.8 hPa Calm     86% 0.0 mm 0 W/m2
05:23 9.9 °C 7.7 °C 1031.8 hPa Calm     86% 0.0 mm 0 W/m2
05:28 10 °C 7.9 °C 1031.8 hPa Calm     87% 0.0 mm 0 W/m2
05:33 9.9 °C 7.7 °C 1032.2 hPa Calm     86% 0.0 mm 0 W/m2
05:38 9.9 °C 7.8 °C 1031.8 hPa Calm     87% 0.0 mm 5 W/m2
05:43 9.9 °C 7.8 °C 1031.8 hPa Calm     87% 0.0 mm 5 W/m2
05:48 9.8 °C 7.7 °C 1032.2 hPa Calm     87% 0.0 mm 7 W/m2
05:53 9.8 °C 7.7 °C 1032.2 hPa Calm     87% 0.0 mm 11 W/m2
05:58 9.8 °C 7.7 °C 1032.2 hPa Calm   1.6 km/h 87% 0.0 mm 12 W/m2
06:03 9.8 °C 7.7 °C 1032.2 hPa Calm     87% 0.0 mm 14 W/m2
06:08 9.8 °C 7.7 °C 1032.2 hPa Calm     87% 0.0 mm 18 W/m2
06:13 9.8 °C 7.7 °C 1032.2 hPa Calm     87% 0.0 mm 19 W/m2
06:18 9.8 °C 7.7 °C 1032.2 hPa Calm     87% 0.0 mm 23 W/m2
06:23 9.9 °C 7.8 °C 1032.2 hPa Calm     87% 0.0 mm 26 W/m2
06:28 9.9 °C 7.8 °C 1032.2 hPa Calm     87% 0.0 mm 28 W/m2
06:33 10.1 °C 8 °C 1032.2 hPa Calm     87% 0.0 mm 30 W/m2
06:38 10.2 °C 8 °C 1032.2 hPa Calm     86% 0.0 mm 32 W/m2
06:43 10.3 °C 8.2 °C 1032.2 hPa Calm     87% 0.0 mm 33 W/m2
06:48 10.3 °C 8.1 °C 1032.2 hPa Calm   1.6 km/h 86% 0.0 mm 33 W/m2
06:53 10.5 °C 8.3 °C 1032.5 hPa Calm     86% 0.0 mm 35 W/m2
06:58 10.7 °C 8.5 °C 1032.2 hPa Calm     86% 0.0 mm 35 W/m2
07:03 10.8 °C 8.6 °C 1032.5 hPa South 1.4 km/h 3.2 km/h 86% 0.0 mm 37 W/m2
07:08 11.1 °C 8.5 °C 1032.2 hPa Calm     84% 0.0 mm 37 W/m2
07:14 11.3 °C 8.3 °C 1032.2 hPa Calm     82% 0.0 mm 37 W/m2
07:19 11.6 °C 8.5 °C 1032.2 hPa Calm     81% 0.0 mm 39 W/m2
07:24 11.8 °C 8.5 °C 1032.5 hPa Calm     80% 0.0 mm 40 W/m2
07:29 11.9 °C 8.4 °C 1032.5 hPa Calm     79% 0.0 mm 40 W/m2
07:34 12.2 °C 8.7 °C 1032.2 hPa Calm     79% 0.0 mm 40 W/m2
07:39 12.4 °C 8.7 °C 1032.5 hPa Calm   3.2 km/h 78% 0.0 mm 162 W/m2
07:44 12.7 °C 8.8 °C 1032.5 hPa Calm     77% 0.0 mm 172 W/m2
07:49 13.1 °C 9.2 °C 1032.5 hPa Calm     77% 0.0 mm 239 W/m2
07:55 13.6 °C 9.3 °C 1032.5 hPa NE 1.4 km/h 3.2 km/h 75% 0.0 mm 253 W/m2
08:00 14.2 °C 9.4 °C 1032.5 hPa Calm   4.8 km/h 73% 0.0 mm 269 W/m2
08:05 14.7 °C 9.3 °C 1032.5 hPa ENE 3.2 km/h 6.4 km/h 70% 0.0 mm 279 W/m2
08:10 15.1 °C 9.5 °C 1032.5 hPa Calm   1.6 km/h 69% 0.0 mm 288 W/m2
08:15 15.3 °C 9.4 °C 1032.5 hPa Calm   6.4 km/h 68% 0.0 mm 309 W/m2
08:20 15.4 °C 9.5 °C 1032.5 hPa ENE 3.2 km/h 3.2 km/h 68% 0.0 mm 323 W/m2
08:25 15.6 °C 9.5 °C 1032.5 hPa NE 1.4 km/h 6.4 km/h 67% 0.0 mm 341 W/m2
08:30 16 °C 9.9 °C 1032.5 hPa Calm   1.6 km/h 67% 0.0 mm 353 W/m2
08:35 16.3 °C 9.7 °C 1032.5 hPa ENE 1.4 km/h 6.4 km/h 65% 0.0 mm 366 W/m2
08:40 16.4 °C 9.3 °C 1032.5 hPa Calm   3.2 km/h 63% 0.0 mm 381 W/m2
08:45 16.4 °C 9.6 °C 1032.5 hPa Calm   3.2 km/h 64% 0.0 mm 396 W/m2
08:50 16.6 °C 9.5 °C 1032.5 hPa ESE 3.2 km/h 4.8 km/h 63% 0.0 mm 408 W/m2
08:55 16.6 °C 9 °C 1032.5 hPa North 3.2 km/h 4.8 km/h 61% 0.0 mm 422 W/m2
09:00 16.7 °C 9.1 °C 1032.5 hPa SE 1.4 km/h 3.2 km/h 61% 0.0 mm 434 W/m2
09:05 16.9 °C 9.3 °C 1032.5 hPa SE 3.2 km/h 11.3 km/h 61% 0.0 mm 446 W/m2
09:10 17.1 °C 9.5 °C 1032.5 hPa East 1.4 km/h 3.2 km/h 61% 0.0 mm 459 W/m2
09:15 17.3 °C 9.5 °C 1032.5 hPa ESE 3.2 km/h 6.4 km/h 60% 0.0 mm 475 W/m2
09:20 17.4 °C 9.6 °C 1032.5 hPa East 1.4 km/h 4.8 km/h 60% 0.0 mm 487 W/m2
09:25 17.6 °C 9.2 °C 1032.5 hPa ESE 6.4 km/h 6.4 km/h 58% 0.0 mm 501 W/m2
09:30 17.8 °C 9.4 °C 1032.5 hPa Calm   3.2 km/h 58% 0.0 mm 513 W/m2
09:35 18.1 °C 8.9 °C 1032.5 hPa Calm   6.4 km/h 55% 0.0 mm 526 W/m2
09:40 18.3 °C 9.1 °C 1032.5 hPa NE 1.4 km/h 3.2 km/h 55% 0.0 mm 538 W/m2
09:45 18.4 °C 8.9 °C 1032.5 hPa ENE 4.7 km/h 8 km/h 54% 0.0 mm 554 W/m2
09:50 18.5 °C 9 °C 1032.5 hPa NNW 3.2 km/h 4.8 km/h 54% 0.0 mm 563 W/m2
09:55 18.7 °C 8.9 °C 1032.5 hPa East 4.7 km/h 4.8 km/h 53% 0.0 mm 527 W/m2
10:00 18.6 °C 9.1 °C 1032.5 hPa SE 1.4 km/h 9.7 km/h 54% 0.0 mm 62 W/m2
10:05 18.8 °C 9.3 °C 1032.5 hPa ENE 9.7 km/h 12.9 km/h 54% 0.0 mm 134 W/m2
10:10 18.8 °C 9.6 °C 1032.5 hPa Calm   4.8 km/h 55% 0.0 mm 610 W/m2
10:15 19.1 °C 9 °C 1032.5 hPa ENE 4.7 km/h 12.9 km/h 52% 0.0 mm 622 W/m2
10:20 19.1 °C 8.7 °C 1032.5 hPa ENE 6.4 km/h 6.4 km/h 51% 0.0 mm 633 W/m2
10:25 19.1 °C 9 °C 1032.5 hPa NNE 6.4 km/h 11.3 km/h 52% 0.0 mm 645 W/m2
10:30 19.4 °C 9.6 °C 1032.5 hPa ESE 1.4 km/h 11.3 km/h 53% 0.0 mm 663 W/m2
10:35 19.7 °C 9 °C 1032.5 hPa East 4.7 km/h 9.7 km/h 50% 0.0 mm 663 W/m2
10:40 19.7 °C 9.6 °C 1032.5 hPa ESE 3.2 km/h 4.8 km/h 52% 0.0 mm 675 W/m2
10:45 19.7 °C 9 °C 1032.2 hPa ENE 4.7 km/h 11.3 km/h 50% 0.0 mm 693 W/m2
10:50 19.9 °C 8.9 °C 1032.2 hPa ESE 4.7 km/h 14.5 km/h 49% 0.0 mm 707 W/m2
10:55 19.9 °C 9.5 °C 1032.2 hPa NNW 3.2 km/h 4.8 km/h 51% 0.0 mm 714 W/m2
11:00 20.1 °C 9.4 °C 1032.2 hPa North 1.4 km/h 17.7 km/h 50% 0.0 mm 722 W/m2
11:05 20 °C 9.8 °C 1032.2 hPa NE 4.7 km/h 8 km/h 52% 0.0 mm 729 W/m2
11:10 20.2 °C 9.1 °C 1032.2 hPa NE 7.9 km/h 17.7 km/h 49% 0.0 mm 747 W/m2
11:15 20.2 °C 8.8 °C 1032.2 hPa NNW 6.4 km/h 11.3 km/h 48% 0.0 mm 754 W/m2
11:20 20.2 °C 8.2 °C 1032.2 hPa ENE 6.4 km/h 16.1 km/h 46% 0.0 mm 765 W/m2
11:25 20.2 °C 9.1 °C 1032.2 hPa NNE 1.4 km/h 4.8 km/h 49% 0.0 mm 758 W/m2
11:30 20.3 °C 8.9 °C 1031.8 hPa ESE 1.4 km/h 16.1 km/h 48% 0.0 mm 777 W/m2
11:35 20.7 °C 9.3 °C 1031.8 hPa South 4.7 km/h 9.7 km/h 48% 0.0 mm 786 W/m2
11:40 20.9 °C 9.2 °C 1031.8 hPa ENE 1.4 km/h 8 km/h 47% 0.0 mm 796 W/m2
11:45 21 °C 9.6 °C 1031.8 hPa East 6.4 km/h 11.3 km/h 48% 0.0 mm 802 W/m2
11:50 21.2 °C 9.1 °C 1031.8 hPa ENE 11.1 km/h 12.9 km/h 46% 0.0 mm 807 W/m2
11:55 20.9 °C 8.2 °C 1031.8 hPa Calm   6.4 km/h 44% 0.0 mm 812 W/m2
12:00 21.1 °C 9 °C 1031.8 hPa SSW 1.4 km/h 11.3 km/h 46% 0.0 mm 819 W/m2
12:05 21.3 °C 9.2 °C 1031.8 hPa ENE 7.9 km/h 8 km/h 46% 0.0 mm 833 W/m2
12:10 21.6 °C 9.2 °C 1031.8 hPa NW 4.7 km/h 12.9 km/h 45% 0.0 mm 842 W/m2
12:15 21.4 °C 8.3 °C 1031.8 hPa ENE 13 km/h 12.9 km/h 43% 0.0 mm 847 W/m2
12:20 21.4 °C 8.6 °C 1031.5 hPa ENE 3.2 km/h 6.4 km/h 44% 0.0 mm 849 W/m2
12:25 21.4 °C 8.6 °C 1031.5 hPa NNE 7.9 km/h 12.9 km/h 44% 0.0 mm 858 W/m2
12:30 21.4 °C 8.6 °C 1031.8 hPa SE 6.4 km/h 9.7 km/h 44% 0.0 mm 865 W/m2
12:35 21.7 °C 8.9 °C 1031.5 hPa NNW 3.2 km/h 12.9 km/h 44% 0.0 mm 631 W/m2
12:40 21.4 °C 8.6 °C 1031.5 hPa NNE 6.4 km/h 8 km/h 44% 0.0 mm 740 W/m2
12:45 21.5 °C 8.7 °C 1031.5 hPa NE 4.7 km/h 14.5 km/h 44% 0.0 mm 860 W/m2
12:50 21.7 °C 9.2 °C 1031.5 hPa NNW 6.4 km/h 8 km/h 45% 0.0 mm 870 W/m2
12:55 21.7 °C 8.6 °C 1031.5 hPa ESE 4.7 km/h 12.9 km/h 43% 0.0 mm 872 W/m2
13:00 21.6 °C 9.2 °C 1031.5 hPa WSW 1.4 km/h 12.9 km/h 45% 0.0 mm 874 W/m2
13:05 21.7 °C 8.6 °C 1031.5 hPa ENE 3.2 km/h 14.5 km/h 43% 0.0 mm 877 W/m2
13:10 21.6 °C 9.2 °C 1031.5 hPa East 3.2 km/h 8 km/h 45% 0.0 mm 877 W/m2
13:15 21.8 °C 9.3 °C 1031.5 hPa ENE 4.7 km/h 12.9 km/h 45% 0.0 mm 881 W/m2
13:20 21.8 °C 9 °C 1031.2 hPa East 6.4 km/h 14.5 km/h 44% 0.0 mm 881 W/m2
13:25 21.8 °C 8.7 °C 1031.2 hPa NW 6.4 km/h 12.9 km/h 43% 0.0 mm 882 W/m2
13:30 21.9 °C 9.1 °C 1031.2 hPa NW 3.2 km/h 14.5 km/h 44% 0.0 mm 877 W/m2
13:35 21.9 °C 8.4 °C 1031.2 hPa SSE 3.2 km/h 8 km/h 42% 0.0 mm 884 W/m2
13:40 22.2 °C 9 °C 1031.2 hPa SE 3.2 km/h 3.2 km/h 43% 0.0 mm 884 W/m2
13:45 22.2 °C 9.4 °C 1031.2 hPa ENE 6.4 km/h 16.1 km/h 44% 0.0 mm 882 W/m2
13:50 22.2 °C 9.4 °C 1031.2 hPa ESE 9.7 km/h 16.1 km/h 44% 0.0 mm 881 W/m2
13:55 22.2 °C 9 °C 1031.2 hPa WNW 1.4 km/h 3.2 km/h 43% 0.0 mm 879 W/m2
14:00 22.2 °C 9.7 °C 1031.2 hPa SE 7.9 km/h 16.1 km/h 45% 0.0 mm 882 W/m2
14:05 22.3 °C 9.8 °C 1031.2 hPa SE 7.9 km/h 11.3 km/h 45% 0.0 mm 877 W/m2
14:10 22.6 °C 10.1 °C 1030.8 hPa West 1.4 km/h 14.5 km/h 45% 0.0 mm 874 W/m2
14:16 22.8 °C 9.9 °C 1030.8 hPa NNE 1.4 km/h 4.8 km/h 44% 0.0 mm 870 W/m2
14:21 22.8 °C 8.9 °C 1030.8 hPa SSW 1.4 km/h 4.8 km/h 41% 0.0 mm 867 W/m2
14:26 22.9 °C 8.9 °C 1030.8 hPa SW 3.2 km/h 4.8 km/h 41% 0.0 mm 867 W/m2
14:31 22.9 °C 9.3 °C 1030.8 hPa North 3.2 km/h 9.7 km/h 42% 0.0 mm 865 W/m2
14:36 23 °C 9 °C 1030.8 hPa NNW 1.4 km/h 9.7 km/h 41% 0.0 mm 856 W/m2
14:41 23 °C 9.4 °C 1030.8 hPa ENE 7.9 km/h 11.3 km/h 42% 0.0 mm 853 W/m2
14:46 23.2 °C 9.9 °C 1030.5 hPa NW 3.2 km/h 9.7 km/h 43% 0.0 mm 853 W/m2
14:51 23.3 °C 9.3 °C 1030.5 hPa Calm   6.4 km/h 41% 0.0 mm 837 W/m2
14:56 23.2 °C 9.9 °C 1030.5 hPa East 3.2 km/h 6.4 km/h 43% 0.0 mm 840 W/m2
15:01 23.2 °C 9.9 °C 1030.5 hPa ENE 3.2 km/h 11.3 km/h 43% 0.0 mm 837 W/m2
15:06 23.6 °C 10.3 °C 1030.5 hPa NE 3.2 km/h 8 km/h 43% 0.0 mm 830 W/m2
15:11 23.6 °C 9.2 °C 1030.5 hPa SSW 3.2 km/h 6.4 km/h 40% 0.0 mm 833 W/m2
15:16 23.7 °C 10.4 °C 1030.5 hPa Calm   4.8 km/h 43% 0.0 mm 823 W/m2
15:21 23.7 °C 9.7 °C 1030.1 hPa NNE 1.4 km/h 3.2 km/h 41% 0.0 mm 802 W/m2
15:26 23.7 °C 9.3 °C 1030.1 hPa NE 1.4 km/h 8 km/h 40% 0.0 mm 802 W/m2
15:31 23.7 °C 10 °C 1030.1 hPa ESE 1.4 km/h 3.2 km/h 42% 0.0 mm 793 W/m2
15:36 23.8 °C 9.8 °C 1030.1 hPa ENE 6.4 km/h 11.3 km/h 41% 0.0 mm 791 W/m2
15:41 23.9 °C 9.1 °C 1030.1 hPa ENE 1.4 km/h 14.5 km/h 39% 0.0 mm 779 W/m2
15:46 23.9 °C 9.1 °C 1030.1 hPa NNE 6.4 km/h 11.3 km/h 39% 0.0 mm 775 W/m2
15:51 23.9 °C 8.7 °C 1030.1 hPa NNW 6.4 km/h 11.3 km/h 38% 0.0 mm 758 W/m2
15:56 23.7 °C 8.9 °C 1030.1 hPa West 3.2 km/h 6.4 km/h 39% 0.0 mm 765 W/m2
16:01 23.8 °C 8.2 °C 1029.8 hPa WNW 16.3 km/h 17.7 km/h 37% 0.0 mm 747 W/m2
16:06 23.9 °C 7.9 °C 1030.1 hPa North 3.2 km/h 6.4 km/h 36% 0.0 mm 747 W/m2
16:11 24 °C 8 °C 1029.8 hPa East 3.2 km/h 14.5 km/h 36% 0.0 mm 740 W/m2
16:16 24.4 °C 7.9 °C 1029.8 hPa WNW 6.4 km/h 9.7 km/h 35% 0.0 mm 728 W/m2
16:21 24.3 °C 8.3 °C 1029.8 hPa NNW 7.9 km/h 8 km/h 36% 0.0 mm 717 W/m2
16:26 24.3 °C 7.9 °C 1029.8 hPa West 6.4 km/h 19.3 km/h 35% 0.0 mm 710 W/m2
16:31 24.3 °C 7.9 °C 1029.8 hPa WSW 3.2 km/h 3.2 km/h 35% 0.0 mm 694 W/m2
16:36 24.4 °C 7.9 °C 1029.5 hPa NNW 3.2 km/h 19.3 km/h 35% 0.0 mm 687 W/m2
16:41 24.7 °C 7.8 °C 1029.8 hPa ENE 6.4 km/h 6.4 km/h 34% 0.0 mm 675 W/m2
16:46 24.8 °C 7.9 °C 1029.5 hPa East 4.7 km/h 14.5 km/h 34% 0.0 mm 668 W/m2
16:52 24.7 °C 7.8 °C 1029.5 hPa West 1.4 km/h 6.4 km/h 34% 0.0 mm 656 W/m2
16:57 24.7 °C 8.6 °C 1029.5 hPa ESE 4.7 km/h 6.4 km/h 36% 0.0 mm 642 W/m2
17:02 24.7 °C 7.3 °C 1029.5 hPa NW 1.4 km/h 3.2 km/h 33% 0.0 mm 631 W/m2
17:07 24.7 °C 8.2 °C 1029.5 hPa ENE 1.4 km/h 3.2 km/h 35% 0.0 mm 621 W/m2
17:12 24.8 °C 7.9 °C 1029.1 hPa NNW 3.2 km/h 3.2 km/h 34% 0.0 mm 606 W/m2
17:17 25 °C 8 °C 1029.1 hPa NW 4.7 km/h 11.3 km/h 34% 0.0 mm 601 W/m2
17:22 25.2 °C 8.2 °C 1029.1 hPa NNW 6.4 km/h 8 km/h 34% 0.0 mm 585 W/m2
17:27 25.3 °C 8.3 °C 1029.1 hPa Calm   6.4 km/h 34% 0.0 mm 568 W/m2
17:32 25.4 °C 8.8 °C 1029.1 hPa NE 1.4 km/h 6.4 km/h 35% 0.0 mm 554 W/m2
17:37 25.6 °C 8.1 °C 1029.1 hPa SE 3.2 km/h 11.3 km/h 33% 0.0 mm 547 W/m2
17:42 25.4 °C 8 °C 1029.1 hPa East 6.4 km/h 9.7 km/h 33% 0.0 mm 533 W/m2
17:47 25.3 °C 8.3 °C 1029.1 hPa West 4.7 km/h 8 km/h 34% 0.0 mm 515 W/m2
17:52 25.3 °C 7.9 °C 1029.1 hPa NNW 3.2 km/h 9.7 km/h 33% 0.0 mm 504 W/m2
17:57 25.4 °C 8.4 °C 1029.1 hPa NE 1.4 km/h 3.2 km/h 34% 0.0 mm 489 W/m2
18:02 25.4 °C 7.5 °C 1029.1 hPa ENE 1.4 km/h 8 km/h 32% 0.0 mm 476 W/m2
18:07 25.4 °C 8.4 °C 1029.1 hPa NNE 1.4 km/h 3.2 km/h 34% 0.0 mm 464 W/m2
18:12 25.5 °C 8 °C 1029.1 hPa WNW 4.7 km/h 4.8 km/h 33% 0.0 mm 448 W/m2
18:17 25.3 °C 8.3 °C 1028.8 hPa West 3.2 km/h 3.2 km/h 34% 0.0 mm 429 W/m2
18:22 25.4 °C 8.4 °C 1028.8 hPa NNW 1.4 km/h 3.2 km/h 34% 0.0 mm 404 W/m2
18:27 25.6 °C 8.6 °C 1028.8 hPa SE 1.4 km/h 4.8 km/h 34% 0.0 mm 373 W/m2
18:32 25.6 °C 8.6 °C 1028.8 hPa NNE 1.4 km/h 6.4 km/h 34% 0.0 mm 339 W/m2
18:37 25.7 °C 8.7 °C 1028.8 hPa NE 1.4 km/h 3.2 km/h 34% 0.0 mm 318 W/m2
18:42 25.5 °C 8.9 °C 1028.8 hPa NNW 3.2 km/h 4.8 km/h 35% 0.0 mm 297 W/m2
18:47 25.4 °C 8.8 °C 1028.8 hPa NNW 1.4 km/h 4.8 km/h 35% 0.0 mm 274 W/m2
18:52 25.4 °C 8.8 °C 1028.5 hPa West 4.7 km/h 8 km/h 35% 0.0 mm 255 W/m2
18:57 25.1 °C 9 °C 1028.5 hPa West 3.2 km/h 9.7 km/h 36% 0.0 mm 234 W/m2
19:02 25 °C 9.3 °C 1028.5 hPa WSW 1.4 km/h 3.2 km/h 37% 0.0 mm 220 W/m2
19:07 25.1 °C 9 °C 1028.5 hPa East 1.4 km/h 4.8 km/h 36% 0.0 mm 236 W/m2
19:12 25.2 °C 9.1 °C 1028.5 hPa ENE 3.2 km/h 6.4 km/h 36% 0.0 mm 244 W/m2
19:17 25.2 °C 9.1 °C 1028.5 hPa NNW 3.2 km/h 3.2 km/h 36% 0.0 mm 248 W/m2
19:22 25.3 °C 9.2 °C 1028.5 hPa Calm   6.4 km/h 36% 0.0 mm 246 W/m2
19:27 25.4 °C 8.8 °C 1028.5 hPa NE 1.4 km/h 6.4 km/h 35% 0.0 mm 232 W/m2
19:32 25.3 °C 9.6 °C 1028.5 hPa Calm   1.6 km/h 37% 0.0 mm 214 W/m2
19:37 25.3 °C 11.1 °C 1028.5 hPa SSE 1.4 km/h 4.8 km/h 41% 0.0 mm 195 W/m2
19:42 25.3 °C 11.8 °C 1028.5 hPa Calm     43% 0.0 mm 160 W/m2
19:47 25.3 °C 12.2 °C 1028.1 hPa SSE 1.4 km/h 3.2 km/h 44% 0.0 mm 134 W/m2
19:53 24.9 °C 11.5 °C 1028.1 hPa Calm   3.2 km/h 43% 0.0 mm 125 W/m2
19:58 24.4 °C 11 °C 1028.1 hPa Calm   1.6 km/h 43% 0.0 mm 114 W/m2
20:03 24.1 °C 11.8 °C 1028.1 hPa Calm   3.2 km/h 46% 0.0 mm 102 W/m2
20:08 23.7 °C 11.4 °C 1028.1 hPa Calm     46% 0.0 mm 35 W/m2
20:13 23.4 °C 11.4 °C 1028.5 hPa Calm     47% 0.0 mm 39 W/m2
20:18 22.9 °C 11.3 °C 1028.1 hPa Calm     48% 0.0 mm 28 W/m2
20:23 22.6 °C 11 °C 1028.5 hPa Calm     48% 0.0 mm 25 W/m2
20:28 22.2 °C 11.3 °C 1028.1 hPa Calm     50% 0.0 mm 21 W/m2
20:33 21.8 °C 10.6 °C 1028.1 hPa Calm     49% 0.0 mm 25 W/m2
20:38 21.3 °C 10.5 °C 1028.1 hPa Calm   1.6 km/h 50% 0.0 mm 30 W/m2
20:43 20.9 °C 10.4 °C 1028.1 hPa Calm     51% 0.0 mm 28 W/m2
20:48 20.7 °C 10.2 °C 1028.1 hPa Calm   1.6 km/h 51% 0.0 mm 28 W/m2
20:53 20.6 °C 10.4 °C 1028.1 hPa Calm     52% 0.0 mm 23 W/m2
20:59 20.5 °C 10.3 °C 1028.1 hPa Calm     52% 0.0 mm 21 W/m2
21:04 20.4 °C 10.2 °C 1028.5 hPa Calm   1.6 km/h 52% 0.0 mm 19 W/m2
21:09 20.2 °C 10 °C 1028.5 hPa Calm   1.6 km/h 52% 0.0 mm 14 W/m2
21:14 20.1 °C 10.2 °C 1028.5 hPa Calm     53% 0.0 mm 11 W/m2
21:19 19.8 °C 9.9 °C 1028.5 hPa Calm   1.6 km/h 53% 0.0 mm 5 W/m2
21:24 19.6 °C 10 °C 1028.5 hPa Calm   3.2 km/h 54% 0.0 mm 0 W/m2
21:29 19.3 °C 9.8 °C 1028.5 hPa Calm   1.6 km/h 54% 0.0 mm 0 W/m2
21:34 19.1 °C 10.1 °C 1028.5 hPa South 1.4 km/h 1.6 km/h 56% 0.0 mm 0 W/m2
21:39 18.8 °C 9.8 °C 1028.5 hPa Calm   1.6 km/h 56% 0.0 mm 0 W/m2
21:44 18.5 °C 9.6 °C 1028.5 hPa WSW 4.7 km/h 4.8 km/h 56% 0.0 mm 0 W/m2
21:49 18.6 °C 9.4 °C 1028.5 hPa WSW 1.4 km/h 6.4 km/h 55% 0.0 mm 0 W/m2
21:54 19 °C 9.5 °C 1028.5 hPa WNW 1.4 km/h 1.6 km/h 54% 0.0 mm 0 W/m2
21:59 19.2 °C 9.9 °C 1028.5 hPa West 4.7 km/h 4.8 km/h 55% 0.0 mm 0 W/m2
22:04 19.2 °C 9.9 °C 1028.8 hPa West 1.4 km/h 4.8 km/h 55% 0.0 mm 0 W/m2
22:09 19.2 °C 10.2 °C 1028.8 hPa WSW 4.7 km/h 6.4 km/h 56% 0.0 mm 0 W/m2
22:14 19.2 °C 10.2 °C 1028.8 hPa WSW 1.4 km/h 3.2 km/h 56% 0.0 mm 0 W/m2
22:19 19.3 °C 10.3 °C 1028.8 hPa WNW 3.2 km/h 4.8 km/h 56% 0.0 mm 0 W/m2
22:24 19.3 °C 10.3 °C 1028.8 hPa West 1.4 km/h 1.6 km/h 56% 0.0 mm 0 W/m2
22:29 19.3 °C 10.6 °C 1028.8 hPa WSW 3.2 km/h 4.8 km/h 57% 0.0 mm 0 W/m2
22:34 19.2 °C 10.5 °C 1028.8 hPa WNW 9.7 km/h 9.7 km/h 57% 0.0 mm 0 W/m2
22:39 19.3 °C 10.3 °C 1028.8 hPa WSW 1.4 km/h 11.3 km/h 56% 0.0 mm 0 W/m2
22:44 19.5 °C 10.2 °C 1029.1 hPa WNW 3.2 km/h 6.4 km/h 55% 0.0 mm 0 W/m2
22:49 19.7 °C 10.1 °C 1029.1 hPa NNW 6.4 km/h 14.5 km/h 54% 0.0 mm 0 W/m2
22:54 19.9 °C 10.3 °C 1029.1 hPa WNW 4.7 km/h 6.4 km/h 54% 0.0 mm 0 W/m2
23:00 19.9 °C 10.3 °C 1029.1 hPa WNW 4.7 km/h 9.7 km/h 54% 0.0 mm 0 W/m2
23:05 19.9 °C 10.3 °C 1029.1 hPa West 9.7 km/h 11.3 km/h 54% 0.0 mm 0 W/m2
23:10 19.8 °C 10.2 °C 1029.1 hPa West 4.7 km/h 9.7 km/h 54% 0.0 mm 0 W/m2
23:15 19.7 °C 10.4 °C 1029.1 hPa West 3.2 km/h 9.7 km/h 55% 0.0 mm 0 W/m2
23:20 19.6 °C 10.3 °C 1029.1 hPa WNW 14.5 km/h 14.5 km/h 55% 0.0 mm 0 W/m2
23:25 19.5 °C 10.5 °C 1029.1 hPa North 1.4 km/h 6.4 km/h 56% 0.0 mm 0 W/m2
23:30 19.4 °C 10.4 °C 1029.1 hPa West 4.7 km/h 12.9 km/h 56% 0.0 mm 0 W/m2
23:35 19.3 °C 10.3 °C 1029.1 hPa North 7.9 km/h 8 km/h 56% 0.0 mm 0 W/m2
23:40 19.3 °C 10.3 °C 1029.1 hPa SW 4.7 km/h 8 km/h 56% 0.0 mm 0 W/m2
23:45 19.2 °C 10.5 °C 1029.1 hPa WSW 3.2 km/h 12.9 km/h 57% 0.0 mm 0 W/m2
23:50 19.1 °C 10.4 °C 1029.1 hPa NW 6.4 km/h 14.5 km/h 57% 0.0 mm 0 W/m2
23:55 19 °C 10.5 °C 1029.1 hPa WNW 6.4 km/h 9.7 km/h 58% 0.0 mm 0 W/m2
Juneau County Weather
Compliments of Weather Underground - 4 mb